Lake Harding Weather Center

Moon Phase Calendar



Lake Harding Water Level
Online Cameras

 


      

Current Conditions in Valley
10/1/2022 9:40:32 AM

59°F
Feels Like 56
Clear
Humidity
37%
Pressure
29.91"
Wind
8.7 mph (NW)
Dew Point
32°F
UV Index
2/10 (Low)
Visibility
6 mi

Hourly Forecast

Date & Time Sat, Oct 1
9:00 AM
Sat, Oct 1
10:00 AM
Sat, Oct 1
11:00 AM
Sat, Oct 1
12:00 PM
Sat, Oct 1
1:00 PM
Sat, Oct 1
2:00 PM
Sat, Oct 1
3:00 PM
Sat, Oct 1
4:00 PM
Sat, Oct 1
5:00 PM
Sat, Oct 1
6:00 PM
Sat, Oct 1
7:00 PM
Sat, Oct 1
8:00 PM
Sat, Oct 1
9:00 PM
Sat, Oct 1
10:00 PM
Sat, Oct 1
11:00 PM
Sun, Oct 2
12:00 AM
Sun, Oct 2
1:00 AM
Sun, Oct 2
2:00 AM
Sun, Oct 2
3:00 AM
Sun, Oct 2
4:00 AM
Sun, Oct 2
5:00 AM
Sun, Oct 2
6:00 AM
Sun, Oct 2
7:00 AM
Sun, Oct 2
8:00 AM
Sun, Oct 2
9:00 AM
Sun, Oct 2
10:00 AM
Sun, Oct 2
11:00 AM
Sun, Oct 2
12:00 PM
Sun, Oct 2
1:00 PM
Sun, Oct 2
2:00 PM
Sun, Oct 2
3:00 PM
Sun, Oct 2
4:00 PM
Sun, Oct 2
5:00 PM
Sun, Oct 2
6:00 PM
Sun, Oct 2
7:00 PM
Sun, Oct 2
8:00 PM
Sun, Oct 2
9:00 PM
Sun, Oct 2
10:00 PM
Sun, Oct 2
11:00 PM
Mon, Oct 3
12:00 AM
Mon, Oct 3
1:00 AM
Mon, Oct 3
2:00 AM
Mon, Oct 3
3:00 AM
Mon, Oct 3
4:00 AM
Mon, Oct 3
5:00 AM
Mon, Oct 3
6:00 AM
Mon, Oct 3
7:00 AM
Mon, Oct 3
8:00 AM
Condition
Clear

Clear

Clear

Clear

Clear

Clear

Clear

Clear

Clear

Clear

Clear

Clear

Clear

Clear

Clear

Clear

Clear

Clear

Clear

Clear

Clear

Clear

Clear

Clear

Clear

Clear

Clear

Clear

Clear

Clear

Clear

Clear

Clear

Clear

Clear

Clear

Clouds

Clouds

Clouds

Clouds

Clouds

Clouds

Clear

Clouds

Clouds

Clouds

Clouds

Clouds
Temperature 59°F59°F61°F66°F72°F78°F83°F83°F82°F79°F72°F66°F64°F63°F61°F61°F61°F60°F59°F58°F57°F56°F55°F54°F59°F63°F68°F71°F74°F77°F78°F78°F77°F76°F72°F67°F66°F64°F62°F60°F58°F58°F57°F58°F57°F57°F56°F56°F
Feels Like 56°F56°F59°F64°F70°F76°F81°F80°F79°F79°F71°F64°F62°F61°F60°F60°F60°F59°F58°F57°F55°F54°F53°F53°F57°F62°F67°F70°F74°F76°F77°F78°F77°F75°F71°F67°F65°F64°F61°F59°F58°F57°F57°F57°F57°F56°F55°F55°F
Cloudiness 0%0%0%0%0%0%0%0%0%0%0%0%0%0%0%0%0%0%0%0%0%0%0%0%0%0%0%0%0%0%0%0%0%0%0%0%69%34%23%23%36%38%5%52%53%55%45%37%
Visibility 6 mi6 mi6 mi6 mi6 mi6 mi6 mi6 mi6 mi6 mi6 mi6 mi6 mi6 mi6 mi6 mi6 mi6 mi6 mi6 mi6 mi6 mi6 mi6 mi6 mi6 mi6 mi6 mi6 mi6 mi6 mi6 mi6 mi6 mi6 mi6 mi6 mi6 mi6 mi6 mi6 mi6 mi6 mi6 mi6 mi6 mi6 mi6 mi
Precipitation 0%0%0%0%0%0%0%0%0%0%0%0%0%0%0%0%0%0%0%0%0%0%0%0%0%0%0%0%0%0%0%0%0%0%0%0%0%0%0%0%0%0%0%0%0%0%0%0%
Humidity 40%37%35%31%26%21%16%16%17%23%33%42%48%57%65%67%67%65%63%63%66%71%75%77%67%58%52%47%43%41%40%40%41%45%52%59%62%66%71%75%78%80%81%81%81%81%81%82%
Dew Point 35°F32°F33°F34°F35°F35°F32°F32°F32°F37°F42°F42°F44°F47°F49°F50°F50°F48°F47°F46°F45°F46°F47°F47°F47°F48°F49°F50°F51°F51°F51°F52°F52°F53°F53°F52°F52°F52°F52°F52°F51°F51°F51°F52°F51°F51°F50°F50°F
Pressure 29.91"29.91"29.91"29.91"29.88"29.85"29.85"29.85"29.85"29.85"29.88"29.88"29.91"29.94"29.94"29.94"29.94"29.94"29.94"29.94"29.94"29.97"29.97"30"30"30"30"30"30"29.97"29.94"29.94"29.94"29.94"29.97"30"30"30.03"30.03"30.03"30.03"30.03"30.03"30.03"30.06"30.06"30.09"30.12"
Wind Speed 7.7 mph8.7 mph9 mph9.3 mph9.4 mph9.8 mph10.6 mph11.5 mph11.6 mph9.9 mph7.9 mph6.4 mph7 mph6.9 mph6.6 mph8.6 mph9.1 mph9.5 mph9.4 mph8.4 mph7.5 mph7.2 mph6.8 mph6.9 mph9.3 mph10.6 mph10.5 mph10.4 mph10.9 mph11 mph11 mph10.9 mph10.9 mph9.7 mph8.7 mph7.1 mph8.8 mph9.5 mph8.4 mph8 mph7.5 mph6.8 mph6.7 mph6.3 mph6.4 mph6.7 mph6 mph6.1 mph
Wind
Direction
316°
NW
326°
NW
314°
NW
310°
NW
314°
NW
320°
NW
323°
NW
325°
NW
326°
NW
331°
NNW
334°
NNW
324°
NW
331°
NNW
342°
NNW
349°
N
350°
N
347°
NNW
350°
N
351°
N
347°
NNW
343°
NNW
340°
NNW
340°
NNW
338°
NNW
344°
NNW
348°
NNW
347°
NNW
344°
NNW
345°
NNW
344°
NNW
345°
NNW
349°
N
354°
N
356°
N
358°
N
351°
N
354°
N
358°
N

N
360°
N

N
21°
NNE
37°
NE
58°
ENE
68°
ENE
69°
ENE
69°
ENE
65°
ENE

Daily Forecast

Date High Low Precip. Humidity
Today
Oct 1

Clear
83 °F
55 °F
0%
26%
Sunday
Oct 2

Clear
78 °F
54 °F
0%
43%
Monday
Oct 3

Clear
78 °F
56 °F
0%
41%
Tuesday
Oct 4

Clouds
79 °F
54 °F
0%
36%
Wednesday
Oct 5

Clouds
82 °F
55 °F
0%
31%
Thursday
Oct 6

Clear
86 °F
59 °F
0%
32%
Friday
Oct 7

Clouds
83 °F
62 °F
0%
33%
Saturday
Oct 8

Clouds
73 °F
52 °F
0%
24%
Sunday
Oct 9

Clear
77 °F
48 °F
0%
18%
Monday
Oct 10

Clear
82 °F
51 °F
0%
23%
Tuesday
Oct 11

Clear
86 °F
57 °F
0%
25%
Wednesday
Oct 12

Clear
85 °F
58 °F
0%
29%
Thursday
Oct 13

Clear
85 °F
58 °F
0%
32%
Friday
Oct 14

Rain
82 °F
60 °F
85%
38%
Saturday
Oct 15

Rain
81 °F
60 °F
96%
50%
Sunday
Oct 16

Rain
71 °F
61 °F
75%
77%

Temperature 8-14 Day Outlook



Precipitation 8-14 Day Outlook






About Us
Contact Us
Site Map
Search Site
Advertise With Us
   
www.LakeHardingNews.com
THE LAKE HARDING WEBSITE

Copyright 2022, Lakes Online
Privacy    |    Legal